This is the latest recevied weather packets stored in our database for station/object KQ4LLM. If no packets are shown the sender has not sent any weather packets the latest 10 day(s).
| Time | Temp. | Humidity | Pressure | Rain* | Wind** | Luminosity | Snow |
|---|---|---|---|---|---|---|---|
| 1788354054 | 26.11° C | 83% | - | 0 mm | - | - | - |
| 1788353750 | 26.11° C | 83% | - | 0 mm | - | - | - |
| 1788353445 | 25.56° C | 82% | - | 0 mm | - | - | - |
| 1788353142 | 25.56° C | 83% | - | 0 mm | - | - | - |
| 1788352837 | 25.56° C | 85% | - | 0 mm | - | - | - |
| 1788352532 | 25° C | 85% | - | 0 mm | - | - | - |
| 1788352226 | 24.44° C | 88% | - | 0 mm | - | - | - |
| 1788351920 | 24.44° C | 88% | - | 0 mm | - | - | - |
| 1788351615 | 25° C | 87% | - | 0 mm | - | - | - |
| 1788351310 | 25° C | 86% | - | 0 mm | - | - | - |
| 1788351005 | 24.44° C | 85% | - | 0 mm | - | - | - |
| 1788350702 | 24.44° C | 87% | - | 0 mm | - | - | - |
| 1788350402 | 24.44° C | 89% | - | 0 mm | - | - | - |
| 1788350097 | 24.44° C | 87% | - | 0 mm | - | - | - |
| 1788349794 | 23.89° C | 87% | - | 0 mm | - | - | - |
| 1788349489 | 23.89° C | 88% | - | 0 mm | - | - | - |
| 1788349184 | 23.89° C | 89% | - | 0 mm | - | - | - |
| 1788348880 | 23.33° C | 90% | - | 0 mm | - | - | - |
| 1788348579 | 23.33° C | 90% | - | 0 mm | - | - | - |
| 1788348276 | 23.33° C | 90% | - | 0 mm | - | - | - |
| 1788347971 | 22.78° C | 92% | - | 0 mm | - | - | - |
| 1788347668 | 22.78° C | 92% | - | 0 mm | - | - | - |
| 1788347363 | 22.78° C | 92% | - | 0 mm | - | - | - |
| 1788347059 | 22.78° C | 92% | - | 0 mm | - | - | - |
| 1788346754 | 22.78° C | 92% | - | 0 mm | - | - | - |
* Rain latest hour (hover to see other rain measurements)
** Current wind speed in m/s (hover to see current wind gust speed)